Temperature
11 11 11 11 11 11 11 11 10 10 11 12 12 12 12 12 12 13 13 13 13 13 14 14 14 14 14 14 15 15 15 15 15 15 15 16 16 16
11 11 11 11 11 11 10 10 10 10 10 11 11 11 11 12 12 12 12 12 13 13 13 13 13 14 14 14 14 14 14 15 15 15 15 15 15 15
11 11 11 11 11 11 10 10 10 10 10 10 11 11 11 11 11 11 12 12 12 12 13 13 13 13 13 14 14 14 14 14 15 15 15 15 15 15
12 11 11 11 11 11 10 10 10 10 10 10 10 11 11 11 11 11 11 11 12 12 12 12 13 13 13 13 13 14 14 14 14 14 15 15 15 15
12 12 11 11 11 11 10 10 10 10 10 10 10 10 10 10 10 11 11 11 11 11 12 12 12 12 12 13 13 13 13 14 14 14 14 14 15 15
12 12 12 11 11 11 10 10 10 10 10 10 10 10 10 10 10 10 10 11 11 11 11 11 12 12 12 12 12 13 13 13 14 14 14 14 14 15
13 13 12 12 11 11 11 10 10 10 10 10 10 10 10 10 10 10 10 10 10 11 11 11 11 11 11 12 12 12 12 13 13 13 14 14 14 14
14 13 13 12 12 11 11 11 10 10 10 10 10 10 10 10 10 10 9 9 10 10 10 11 11 11 11 11 12 12 12 12 13 13 13 14 14 14
14 13 13 13 12 11 11 11 10 10 10 10 9 10 10 10 10 9 9 9 9 10 9 10 10 11 11 11 11 12 12 12 12 13 13 13 14 14
14 14 13 13 12 12 11 11 11 10 10 10 10 10 10 10 9 9 9 9 9 9 9 9 10 10 11 11 11 11 12 12 12 12 13 13 13 13
14 14 13 13 13 11 11 11 11 11 10 10 10 9 9 9 9 9 9 8 8 9 9 9 9 9 10 10 11 11 11 12 12 12 12 13 13 13
14 14 13 13 13 12 11 11 11 11 11 10 10 9 9 9 9 9 9 8 8 8 9 9 9 9 9 10 10 10 11 11 11 12 12 12 12 12
13 13 13 13 12 12 11 11 11 11 10 10 10 10 9 9 9 9 9 8 8 8 8 8 8 8 8 8 9 10 10 10 11 11 11 12 12 12
12 13 13 13 12 12 11 11 11 10 10 10 9 10 9 9 9 9 8 8 8 8 8 8 8 8 8 8 8 9 10 10 10 10 11 11 11 11
12 12 12 12 12 11 11 11 10 10 10 9 9 9 9 9 9 8 8 8 8 8 8 8 8 8 8 8 8 9 9 9 10 10 10 11 11 11
11 11 11 11 11 11 11 11 10 10 10 9 9 9 9 9 8 8 8 8 8 8 8 8 8 8 8 8 8 8 8 9 9 10 10 10 10 11
11 10 11 11 11 11 11 10 10 10 9 9 9 9 9 8 8 8 8 8 8 8 8 8 8 8 8 8 8 8 8 9 9 9 9 10 10 11
10 10 10 10 11 11 10 10 10 10 9 9 9 9 8 8 8 8 8 8 8 8 8 8 8 8 8 8 8 8 8 9 9 9 9 9 10 11
9 10 10 10 10 10 10 10 10 10 9 9 9 8 8 8 8 8 8 8 8 8 8 8 8 8 7 7 8 9 9 9 9 9 9 9 10 10
9 9 9 9 10 10 10 9 9 9 9 9 8 8 8 8 8 8 8 8 8 8 8 8 8 8 8 8 8 8 9 8 8 9 9 9 9 10
8 8 9 9 9 9 9 9 8 8 8 8 8 8 8 8 8 8 8 8 8 8 8 8 8 8 8 7 7 8 8 9 8 8 9 9 9 9
7 7 8 8 8 8 8 8 8 8 8 8 8 8 8 8 8 8 8 8 8 8 8 8 8 8 7 7 7 7 8 8 8 8 8 8 8 8
6 7 7 7 7 7 7 7 7 8 8 8 8 8 8 7 7 7 7 7 7 8 8 8 8 8 8 7 7 7 8 8 8 8 8 9 8 9
Wind_Speed
4 4 3 3 3 4 3 3 3 2 3 3 2 2 5 7 8 7 7 8 9 9 9 10 10 11 12 13 14 15 17 19 22 26 28 30 30 31
4 5 4 3 4 4 4 4 5 4 4 3 3 4 5 7 8 7 7 9 9 9 9 10 11 12 13 14 15 16 16 18 19 21 24 27 29 31
5 6 7 5 4 4 4 5 5 5 6 6 4 3 4 6 7 7 7 7 7 9 10 11 11 12 14 14 15 16 16 17 19 20 22 24 27 29
8 7 8 6 6 6 5 6 6 7 7 8 5 4 5 5 5 5 6 6 7 9 11 12 12 12 13 14 15 16 16 17 18 19 21 23 25 27
9 8 9 7 8 7 7 7 6 6 7 7 6 4 4 4 4 4 5 5 6 8 10 10 10 11 12 13 14 16 17 18 18 19 20 22 24 26
9 9 10 9 10 9 8 8 7 7 7 7 7 6 6 5 4 5 5 4 4 6 8 8 8 9 10 11 13 14 16 17 18 19 20 21 23 25
10 10 10 12 13 11 8 9 8 8 7 7 8 6 6 5 5 4 5 5 5 4 4 4 5 6 8 10 11 13 15 16 18 19 20 21 23 24
11 10 10 12 14 15 16 14 12 10 10 9 9 9 10 8 6 5 5 4 5 3 3 5 4 7 8 10 13 15 17 17 18 19 20 21 22 23
12 11 10 10 12 11 12 14 14 16 16 12 13 13 11 9 7 7 7 7 7 5 3 6 5 8 9 12 16 18 19 19 19 19 19 20 21 22
13 13 12 12 11 11 11 11 12 12 13 13 13 14 13 11 9 9 8 7 7 6 5 6 6 8 9 11 17 19 19 19 19 18 18 19 20 21
14 14 14 14 15 15 12 13 13 13 13 17 17 17 17 16 11 6 6 6 7 6 5 5 6 7 7 8 11 14 15 16 16 16 17 17 18 18
12 13 16 17 17 16 14 13 15 14 11 10 10 13 13 13 14 12 10 9 8 7 6 6 5 4 5 4 4 5 7 10 13 15 15 15 14 11
12 12 12 18 20 19 17 15 17 14 10 10 9 9 8 8 9 10 11 11 11 10 6 6 5 5 6 6 5 6 7 6 7 8 12 14 14 12
13 12 12 17 19 19 16 17 18 14 10 9 9 9 9 9 9 10 11 13 13 14 11 9 7 8 8 9 8 6 6 7 7 8 8 10 12 16
14 16 16 16 16 14 17 18 14 11 10 10 11 12 11 10 9 7 8 10 12 14 15 14 12 11 10 10 10 9 8 7 8 8 8 7 7 7
14 15 17 16 14 13 11 11 11 11 11 12 12 12 10 8 9 8 7 7 7 10 12 15 14 14 12 12 11 11 10 7 6 7 7 8 8 8
9 8 8 9 10 10 10 10 10 10 11 11 11 11 10 10 10 8 8 8 8 9 9 7 9 11 13 11 10 11 11 10 10 9 8 9 9 9
8 9 11 11 12 12 11 11 10 10 11 11 11 11 10 10 10 8 8 8 10 10 10 9 6 5 5 9 14 13 11 11 10 10 9 9 10 9
9 11 12 12 12 11 11 11 10 10 9 10 10 10 10 10 9 9 9 9 10 10 10 9 7 7 9 11 9 14 12 10 9 9 9 9 10 10
9 11 11 11 10 10 10 10 9 8 8 9 10 10 10 10 10 10 9 10 10 10 10 9 9 10 12 12 9 7 14 12 10 10 9 8 9 10
9 9 9 9 9 9 9 9 9 9 9 9 9 10 10 10 10 11 10 12 11 10 11 11 11 12 10 7 8 9 9 13 13 9 8 7 8 7
9 9 9 9 8 8 8 8 9 9 9 9 9 9 9 10 11 12 11 10 10 11 12 11 9 7 8 9 11 12 11 9 10 13 12 9 7 6
8 8 8 8 8 7 7 9 10 9 8 8 8 8 8 9 9 10 10 11 10 11 11 10 8 7 9 10 11 11 13 11 7 7 8 9 11 12
Wind_Direction
221 217 219 221 208 209 200 189 190 250 282 275 281 296 319 321 324 325 319 319 314 304 296 286 278 274 270 266 262 256 250 244 240 237 234 232 230 229
221 222 231 232 220 213 211 210 207 214 246 255 254 277 296 302 308 311 307 309 308 302 297 290 282 276 272 268 262 257 253 250 246 242 238 236 233 230
231 227 237 232 229 224 214 212 213 209 241 263 252 263 273 282 297 304 301 297 298 298 296 291 283 277 273 269 263 258 254 252 250 246 243 240 237 233
239 233 241 236 232 231 222 223 223 217 229 260 266 260 257 267 277 288 293 294 293 296 296 290 283 279 277 270 264 259 255 253 251 249 246 244 241 237
238 236 241 235 238 235 228 232 234 232 226 244 262 255 259 263 274 278 279 283 290 293 295 290 285 284 282 275 267 262 258 255 254 252 250 248 245 242
238 237 239 234 236 236 233 234 235 238 236 242 257 259 259 259 254 265 278 273 285 292 285 281 283 289 287 283 275 266 260 257 256 255 253 251 248 245
243 240 239 237 236 234 234 234 230 236 240 244 254 258 257 249 247 243 263 279 280 264 273 274 278 287 290 285 279 272 266 261 259 256 253 251 248 246
244 244 243 246 246 244 240 235 225 231 239 243 251 252 257 252 247 241 248 265 278 245 245 275 275 282 282 277 272 272 270 265 261 258 254 250 248 246
238 242 246 244 237 243 247 248 243 236 231 237 248 251 255 248 238 242 235 237 251 253 246 276 271 275 276 274 271 270 268 265 262 259 256 253 251 248
237 236 240 246 240 234 243 250 251 248 240 239 243 249 249 248 237 241 247 249 255 254 229 262 271 272 277 275 272 269 267 264 261 259 256 253 251 247
239 236 235 243 239 227 235 248 255 256 249 241 240 244 245 242 231 229 232 236 259 260 214 232 264 272 274 271 269 267 264 263 262 260 258 256 253 248
243 239 233 234 236 223 228 236 248 254 251 251 245 247 248 247 231 225 230 239 253 261 227 214 246 257 276 259 261 272 278 270 264 260 258 256 254 247
242 243 239 228 230 228 222 230 238 242 247 248 253 255 251 246 240 229 226 230 241 248 233 205 237 242 251 272 278 275 272 274 271 262 255 251 246 236
241 244 241 228 225 227 225 230 233 235 243 244 247 251 251 248 244 238 232 232 237 246 246 225 239 248 256 266 272 271 264 262 264 267 264 251 245 240
245 244 241 234 227 231 232 228 227 229 230 236 243 248 248 249 248 246 243 239 242 246 247 238 237 246 246 253 261 266 272 271 258 258 259 253 247 239
248 249 244 240 235 235 234 230 226 223 223 234 243 249 250 245 243 241 245 241 247 255 245 238 234 234 241 245 250 258 259 259 260 253 257 258 252 245
253 245 239 235 232 231 232 232 225 221 225 232 238 244 246 246 246 238 236 235 237 251 257 243 229 229 234 241 246 251 254 255 255 258 259 262 258 250
249 246 240 234 233 232 231 229 224 222 224 226 231 236 239 240 243 237 228 230 237 244 249 250 236 225 234 241 227 243 249 252 254 251 248 257 264 257
235 241 240 236 233 230 229 228 227 224 220 221 227 230 233 236 238 237 232 230 236 242 245 243 231 227 245 257 240 214 231 247 249 250 245 245 257 261
238 241 243 241 238 234 231 230 232 228 221 223 226 229 230 231 233 235 233 232 235 240 244 239 231 226 233 250 259 245 219 231 244 249 251 252 255 261
256 252 250 248 243 239 234 231 229 228 226 224 228 230 229 228 231 234 236 234 235 240 243 245 240 228 236 245 251 251 244 224 229 240 246 250 256 259
265 257 253 248 244 241 237 233 231 231 231 230 231 231 229 228 232 235 236 236 235 236 243 249 246 225 217 228 242 252 256 249 235 232 239 243 248 252
275 268 260 251 243 239 235 233 233 235 231 230 231 232 231 232 233 236 237 237 238 241 243 247 241 227 227 231 241 247 252 253 245 238 236 232 241 256
Height
1546 1546 1546 1546 1546 1546 1546 1546 1547 1545 1544 1544 1544 1545 1545 1545 1544 1544 1545 1545 1545 1546 1546 1546 1547 1547 1548 1548 1549 1550 1552 1555 1557 1560 1563 1566 1569 1572
1544 1544 1544 1544 1543 1543 1543 1543 1543 1543 1541 1540 1540 1541 1540 1540 1540 1540 1540 1540 1540 1540 1541 1541 1541 1542 1542 1542 1543 1543 1545 1547 1549 1552 1555 1558 1561 1564
1541 1541 1541 1540 1540 1540 1540 1539 1539 1538 1537 1536 1536 1536 1536 1536 1535 1535 1535 1534 1535 1535 1535 1535 1536 1536 1536 1536 1536 1537 1538 1539 1541 1543 1546 1549 1552 1555
1537 1537 1537 1536 1536 1536 1536 1535 1535 1534 1533 1531 1531 1531 1531 1531 1530 1530 1529 1529 1529 1529 1529 1529 1529 1529 1529 1529 1530 1530 1531 1532 1533 1535 1537 1540 1543 1546
1533 1533 1532 1532 1531 1531 1531 1531 1530 1530 1528 1527 1526 1526 1526 1526 1525 1525 1524 1524 1523 1523 1523 1523 1523 1523 1523 1523 1523 1524 1525 1525 1527 1528 1529 1531 1533 1536
1528 1528 1527 1527 1526 1526 1526 1525 1525 1524 1523 1522 1520 1520 1520 1520 1520 1519 1519 1518 1518 1517 1517 1517 1516 1516 1517 1517 1517 1517 1518 1518 1519 1520 1521 1522 1524 1526
1523 1522 1522 1521 1521 1520 1520 1519 1519 1518 1517 1516 1515 1514 1514 1514 1514 1514 1513 1512 1511 1511 1511 1511 1510 1510 1510 1510 1510 1510 1510 1511 1511 1512 1513 1514 1515 1517
1517 1516 1516 1515 1514 1514 1513 1513 1512 1511 1510 1510 1509 1508 1508 1509 1509 1508 1507 1506 1505 1506 1504 1504 1504 1503 1503 1503 1503 1503 1503 1503 1503 1504 1505 1506 1507 1508
1511 1510 1509 1508 1508 1507 1507 1506 1505 1504 1504 1504 1502 1501 1502 1503 1503 1502 1501 1500 1499 1499 1498 1496 1497 1495 1496 1495 1495 1495 1495 1495 1496 1496 1496 1497 1498 1499
1504 1503 1502 1501 1501 1501 1500 1499 1498 1497 1497 1496 1495 1495 1496 1496 1496 1496 1495 1493 1492 1493 1492 1489 1489 1488 1488 1487 1487 1487 1487 1487 1488 1488 1488 1489 1489 1490
1496 1495 1495 1494 1494 1494 1492 1491 1490 1490 1491 1490 1489 1489 1489 1489 1489 1489 1488 1487 1485 1485 1485 1483 1481 1481 1479 1479 1479 1479 1479 1479 1479 1480 1480 1481 1481 1481
1487 1487 1486 1486 1486 1486 1484 1483 1482 1482 1483 1483 1482 1482 1482 1482 1482 1481 1481 1480 1478 1477 1477 1477 1475 1475 1472 1471 1472 1472 1472 1472 1472 1472 1472 1473 1473 1473
1477 1477 1477 1477 1477 1477 1476 1475 1474 1476 1476 1475 1474 1474 1474 1474 1474 1474 1473 1472 1471 1469 1470 1470 1469 1468 1467 1465 1465 1466 1465 1465 1465 1465 1465 1465 1465 1465
1466 1466 1467 1468 1467 1468 1467 1466 1467 1468 1467 1466 1465 1465 1465 1465 1465 1466 1465 1464 1463 1462 1463 1463 1461 1461 1460 1458 1457 1457 1458 1458 1458 1458 1458 1458 1458 1458
1455 1456 1457 1457 1457 1457 1457 1458 1458 1458 1457 1457 1456 1456 1456 1457 1457 1456 1456 1455 1454 1454 1454 1454 1454 1453 1453 1451 1450 1450 1450 1451 1451 1451 1451 1451 1451 1451
1445 1445 1445 1445 1446 1446 1447 1447 1447 1448 1448 1447 1447 1447 1448 1447 1447 1447 1447 1446 1445 1445 1446 1446 1446 1446 1445 1444 1444 1443 1444 1443 1444 1444 1444 1443 1443 1443
1435 1433 1433 1433 1434 1434 1435 1436 1437 1437 1437 1437 1438 1438 1438 1438 1438 1438 1438 1438 1437 1436 1437 1438 1438 1438 1438 1438 1436 1436 1436 1436 1437 1437 1436 1435 1435 1436
1424 1422 1422 1422 1422 1423 1424 1425 1426 1426 1427 1428 1428 1428 1428 1428 1429 1429 1429 1429 1428 1428 1429 1430 1431 1430 1430 1429 1430 1429 1429 1429 1429 1429 1429 1428 1427 1428
1413 1412 1411 1412 1412 1412 1413 1414 1415 1416 1417 1418 1418 1419 1419 1419 1419 1420 1420 1420 1420 1420 1421 1422 1422 1422 1422 1421 1420 1422 1422 1422 1422 1422 1421 1421 1420 1421
1403 1402 1401 1401 1401 1402 1403 1404 1405 1406 1407 1408 1409 1410 1410 1410 1410 1411 1412 1412 1412 1413 1413 1414 1414 1414 1414 1414 1414 1414 1415 1415 1415 1414 1414 1414 1413 1413
1394 1392 1392 1392 1392 1393 1394 1395 1396 1397 1398 1399 1400 1401 1401 1402 1402 1403 1403 1404 1404 1404 1404 1405 1406 1407 1407 1407 1406 1405 1407 1408 1408 1408 1408 1408 1407 1406
1386 1384 1384 1384 1384 1384 1385 1386 1387 1388 1389 1390 1391 1392 1393 1393 1394 1394 1395 1396 1396 1396 1396 1397 1398 1399 1399 1398 1398 1398 1399 1400 1400 1401 1401 1401 1400 1400
1379 1378 1377 1376 1377 1377 1377 1378 1379 1380 1382 1383 1383 1384 1385 1385 1386 1386 1387 1387 1388 1388 1388 1389 1390 1390 1390 1390 1391 1391 1391 1392 1393 1393 1393 1393 1394 1394